Terminal Aerodrome Forecast
Issued by NWS

Home | Current Version | Previous Version | Text Only | Print | Product List | Glossary On
Versions: 1 2 3 4 5 6 7 8 9 10 11 12 13 14 15 16 17 18 19 20 21 22 23 24 25 26 27 28 29 30 31 32 33 34 35 36 37 38 39 40 41 42 43 44 45 46 47 48 49
000
FTUS42 KMFL 041514 AAA
TAFMIA
TAF AMD
KMIA 041514Z 0415/0512 07012G22KT P6SM SCT050 BKN250
     FM041600 08017G27KT P6SM SCT050 BKN250
     FM050200 09012G22KT P6SM VCSH BKN050 BKN250=

USA.gov is the U.S. government's official web portal to all federal, state and local government web resources and services.